Time,TemperatureF,DewpointF,PressureIn,WindDirection,WindDirectionDegrees,WindSpeedMPH,WindSpeedGustMPH,Humidity,HourlyPrecipIn,Conditions,Clouds,dailyrainin,SolarRadiationWatts/m^2,SoftwareType,DateUTC
2013-04-10 00:06:00,37.2,37.0,30.00,North,5,3.0,14.0,97,0.00,,,0.00,0,weatherlink.com 1.10,2013-04-10 05:06:00,
2013-04-10 00:21:00,37.2,37.0,30.00,NE,55,5.0,14.0,97,0.00,,,0.00,0,weatherlink.com 1.10,2013-04-10 05:21:00,
2013-04-10 00:36:00,37.1,36.0,30.00,ENE,59,8.0,12.0,97,0.00,,,0.00,0,weatherlink.com 1.10,2013-04-10 05:36:00,
2013-04-10 01:06:00,36.8,36.0,29.99,North,11,9.0,11.0,97,0.00,,,0.00,0,weatherlink.com 1.10,2013-04-10 06:06:00,
2013-04-10 01:21:00,36.7,36.0,29.99,ENE,59,7.0,12.0,97,0.00,,,0.00,0,weatherlink.com 1.10,2013-04-10 06:21:00,
2013-04-10 01:36:00,36.4,36.0,29.98,NNW,327,6.0,12.0,97,0.01,,,0.01,0,weatherlink.com 1.10,2013-04-10 06:36:00,
2013-04-10 01:51:00,36.1,35.0,29.97,North,350,7.0,16.0,97,0.01,,,0.01,0,weatherlink.com 1.10,2013-04-10 06:51:00,
2013-04-10 02:06:00,35.9,35.0,29.98,NW,317,6.0,21.0,97,0.02,,,0.02,0,weatherlink.com 1.10,2013-04-10 07:06:00,
2013-04-10 02:36:00,35.5,35.0,30.00,NNW,348,4.0,15.0,97,0.03,,,0.04,0,weatherlink.com 1.10,2013-04-10 07:36:00,
2013-04-10 02:51:00,35.3,35.0,29.98,NNE,17,9.0,15.0,97,0.03,,,0.04,0,weatherlink.com 1.10,2013-04-10 07:51:00,
2013-04-10 03:06:00,35.4,35.0,29.95,ENE,62,9.0,14.0,97,0.02,,,0.04,0,weatherlink.com 1.10,2013-04-10 08:06:00,
2013-04-10 03:21:00,35.6,35.0,29.97,WNW,292,6.0,17.0,97,0.01,,,0.04,0,weatherlink.com 1.10,2013-04-10 08:21:00,
2013-04-10 03:36:00,35.7,35.0,29.98,NNE,33,5.0,14.0,97,0.00,,,0.04,0,weatherlink.com 1.10,2013-04-10 08:36:00,
2013-04-10 03:51:00,35.8,35.0,29.98,East,84,7.0,15.0,97,0.01,,,0.05,0,weatherlink.com 1.10,2013-04-10 08:51:00,
2013-04-10 04:06:00,35.9,35.0,29.97,NE,50,5.0,17.0,97,0.01,,,0.05,0,weatherlink.com 1.10,2013-04-10 09:06:00,
2013-04-10 04:21:00,35.9,35.0,29.96,NE,47,5.0,21.0,97,0.02,,,0.06,0,weatherlink.com 1.10,2013-04-10 09:21:00,
2013-04-10 04:36:00,35.9,35.0,29.95,NE,40,6.0,15.0,97,0.02,,,0.06,0,weatherlink.com 1.10,2013-04-10 09:36:00,
2013-04-10 04:51:00,36.0,35.0,29.96,NE,50,8.0,17.0,97,0.01,,,0.06,0,weatherlink.com 1.10,2013-04-10 09:51:00,
2013-04-10 05:06:00,36.1,35.0,29.95,NE,53,6.0,15.0,97,0.01,,,0.06,0,weatherlink.com 1.10,2013-04-10 10:06:00,
2013-04-10 05:21:00,36.2,36.0,29.96,NNE,30,8.0,14.0,97,0.00,,,0.06,0,weatherlink.com 1.10,2013-04-10 10:21:00,
2013-04-10 05:36:00,36.3,36.0,29.98,NNE,30,1.0,11.0,97,0.00,,,0.06,0,weatherlink.com 1.10,2013-04-10 10:36:00,
2013-04-10 05:52:00,36.4,36.0,30.09,West,279,8.0,19.0,97,0.00,,,0.06,0,weatherlink.com 1.10,2013-04-10 10:52:00,
2013-04-10 06:06:00,36.2,36.0,30.02,NW,306,4.0,12.0,97,0.01,,,0.07,0,weatherlink.com 1.10,2013-04-10 11:06:00,
2013-04-10 06:22:00,35.7,35.0,29.97,NNE,13,9.0,14.0,97,0.02,,,0.08,0,weatherlink.com 1.10,2013-04-10 11:22:00,
2013-04-10 06:51:00,35.9,35.0,29.91,NE,48,2.0,12.0,97,0.04,,,0.10,0,weatherlink.com 1.10,2013-04-10 11:51:00,
2013-04-10 07:06:00,36.2,36.0,29.98,NNE,26,3.0,8.0,97,0.04,,,0.11,0,weatherlink.com 1.10,2013-04-10 12:06:00,
2013-04-10 07:21:00,36.3,36.0,29.98,ENE,65,3.0,13.0,97,0.04,,,0.12,5,weatherlink.com 1.10,2013-04-10 12:21:00,
2013-04-10 07:37:00,36.4,36.0,29.96,NE,36,5.0,11.0,97,0.04,,,0.13,0,weatherlink.com 1.10,2013-04-10 12:37:00,
2013-04-10 07:51:00,36.4,36.0,30.01,NE,46,2.0,9.0,97,0.04,,,0.14,0,weatherlink.com 1.10,2013-04-10 12:51:00,
2013-04-10 08:06:00,36.4,36.0,30.04,NNE,33,3.0,7.0,97,0.05,,,0.16,0,weatherlink.com 1.10,2013-04-10 13:06:00,
2013-04-10 08:22:00,36.4,36.0,29.99,NE,43,3.0,9.0,97,0.06,,,0.18,5,weatherlink.com 1.10,2013-04-10 13:22:00,
2013-04-10 08:37:00,36.4,36.0,29.87,North,5,9.0,14.0,97,0.06,,,0.19,16,weatherlink.com 1.10,2013-04-10 13:37:00,
2013-04-10 08:52:00,36.4,36.0,29.91,NNE,21,5.0,15.0,97,0.07,,,0.21,39,weatherlink.com 1.10,2013-04-10 13:52:00,
2013-04-10 09:07:00,36.6,36.0,29.88,NE,48,10.0,14.0,97,0.06,,,0.22,114,weatherlink.com 1.10,2013-04-10 14:07:00,
2013-04-10 09:22:00,37.0,36.0,29.87,ENE,70,7.0,16.0,97,0.06,,,0.24,79,weatherlink.com 1.10,2013-04-10 14:22:00,
2013-04-10 09:37:00,37.2,37.0,29.90,North,5,3.0,12.0,97,0.06,,,0.25,146,weatherlink.com 1.10,2013-04-10 14:37:00,
2013-04-10 09:52:00,37.5,37.0,29.96,NE,56,3.0,12.0,97,0.06,,,0.27,74,weatherlink.com 1.10,2013-04-10 14:52:00,
2013-04-10 10:07:00,37.4,37.0,30.00,NE,40,4.0,8.0,97,0.06,,,0.28,54,weatherlink.com 1.10,2013-04-10 15:07:00,
2013-04-10 10:22:00,37.5,37.0,30.01,NNE,22,4.0,7.0,97,0.05,,,0.29,63,weatherlink.com 1.10,2013-04-10 15:22:00,
2013-04-10 10:37:00,37.5,37.0,30.01,NNW,329,7.0,9.0,97,0.05,,,0.30,56,weatherlink.com 1.10,2013-04-10 15:37:00,
2013-04-10 11:07:00,37.5,37.0,30.01,NE,46,3.0,8.0,97,0.04,,,0.32,77,weatherlink.com 1.10,2013-04-10 16:07:00,
2013-04-10 11:22:00,37.5,37.0,30.03,NNE,26,1.0,6.0,97,0.05,,,0.34,51,weatherlink.com 1.10,2013-04-10 16:22:00,
2013-04-10 11:37:00,37.5,37.0,30.02,North,355,4.0,11.0,97,0.04,,,0.34,67,weatherlink.com 1.10,2013-04-10 16:37:00,
2013-04-10 11:52:00,37.5,37.0,30.00,NNE,19,6.0,16.0,97,0.04,,,0.35,90,weatherlink.com 1.10,2013-04-10 16:52:00,
2013-04-10 12:07:00,37.5,37.0,29.99,NNE,12,4.0,12.0,97,0.04,,,0.36,116,weatherlink.com 1.10,2013-04-10 17:07:00,
2013-04-10 12:22:00,37.4,37.0,29.94,NNE,17,8.0,14.0,97,0.03,,,0.37,130,weatherlink.com 1.10,2013-04-10 17:22:00,
2013-04-10 12:37:00,37.4,37.0,29.96,ENE,77,11.0,12.0,97,0.03,,,0.37,116,weatherlink.com 1.10,2013-04-10 17:37:00,
2013-04-10 12:52:00,37.4,37.0,29.96,ENE,71,9.0,15.0,97,0.03,,,0.38,109,weatherlink.com 1.10,2013-04-10 17:52:00,
2013-04-10 13:07:00,37.4,37.0,29.96,NNE,19,5.0,14.0,97,0.02,,,0.38,98,weatherlink.com 1.10,2013-04-10 18:07:00,
2013-04-10 13:37:00,37.5,37.0,29.98,NE,37,4.0,14.0,97,0.01,,,0.38,95,weatherlink.com 1.10,2013-04-10 18:37:00,
2013-04-10 13:52:00,37.6,37.0,29.99,NNE,24,5.0,13.0,97,0.00,,,0.38,104,weatherlink.com 1.10,2013-04-10 18:52:00,
2013-04-10 14:07:00,37.5,37.0,29.98,NE,42,4.0,13.0,97,0.00,,,0.38,81,weatherlink.com 1.10,2013-04-10 19:07:00,
2013-04-10 14:22:00,37.5,37.0,29.99,NNE,16,5.0,11.0,97,0.00,,,0.38,91,weatherlink.com 1.10,2013-04-10 19:22:00,
2013-04-10 14:37:00,37.6,37.0,30.01,NNE,19,2.0,10.0,97,0.00,,,0.38,114,weatherlink.com 1.10,2013-04-10 19:37:00,
2013-04-10 14:52:00,37.7,37.0,30.03,NNW,348,3.0,6.0,97,0.00,,,0.38,56,weatherlink.com 1.10,2013-04-10 19:52:00,
2013-04-10 15:07:00,37.8,37.0,30.03,ENE,57,2.0,9.0,97,0.00,,,0.38,63,weatherlink.com 1.10,2013-04-10 20:07:00,
2013-04-10 15:22:00,37.7,37.0,30.03,NE,47,3.0,9.0,97,0.00,,,0.38,69,weatherlink.com 1.10,2013-04-10 20:22:00,
2013-04-10 15:52:00,37.5,37.0,30.00,East,87,3.0,10.0,96,0.00,,,0.38,65,weatherlink.com 1.10,2013-04-10 20:52:00,
2013-04-10 16:07:00,37.4,36.0,29.98,NW,326,3.0,13.0,96,0.00,,,0.38,44,weatherlink.com 1.10,2013-04-10 21:07:00,
2013-04-10 16:22:00,37.3,37.0,29.98,NNE,26,4.0,8.0,97,0.00,,,0.38,40,weatherlink.com 1.10,2013-04-10 21:22:00,
2013-04-10 16:37:00,37.1,36.0,29.96,NNE,19,4.0,12.0,97,0.00,,,0.38,51,weatherlink.com 1.10,2013-04-10 21:37:00,
2013-04-10 16:52:00,37.0,36.0,29.95,ENE,62,5.0,16.0,97,0.01,,,0.39,56,weatherlink.com 1.10,2013-04-10 21:52:00,
2013-04-10 17:07:00,37.0,36.0,29.94,NNE,19,6.0,15.0,97,0.02,,,0.40,54,weatherlink.com 1.10,2013-04-10 22:07:00,
2013-04-10 17:22:00,37.0,36.0,29.94,NNW,327,6.0,14.0,97,0.02,,,0.40,39,weatherlink.com 1.10,2013-04-10 22:22:00,
2013-04-10 17:37:00,36.9,36.0,29.97,NE,39,5.0,12.0,97,0.02,,,0.40,21,weatherlink.com 1.10,2013-04-10 22:37:00,
2013-04-10 17:52:00,37.0,36.0,29.96,NE,47,4.0,11.0,97,0.02,,,0.41,23,weatherlink.com 1.10,2013-04-10 22:52:00,
2013-04-10 18:07:00,37.0,36.0,29.96,NE,41,2.0,13.0,97,0.01,,,0.41,25,weatherlink.com 1.10,2013-04-10 23:07:00,
2013-04-10 18:22:00,37.0,36.0,29.96,NE,46,5.0,10.0,97,0.02,,,0.42,12,weatherlink.com 1.10,2013-04-10 23:22:00,
2013-04-10 18:37:00,37.0,36.0,29.96,NE,44,5.0,12.0,97,0.02,,,0.42,12,weatherlink.com 1.10,2013-04-10 23:37:00,
2013-04-10 18:52:00,37.0,36.0,29.95,NE,48,2.0,11.0,97,0.01,,,0.42,11,weatherlink.com 1.10,2013-04-10 23:52:00,
2013-04-10 19:07:00,37.0,36.0,29.96,East,90,3.0,10.0,97,0.01,,,0.42,5,weatherlink.com 1.10,2013-04-11 00:07:00,
2013-04-10 19:22:00,37.0,36.0,29.95,NNE,13,6.0,10.0,97,0.00,,,0.42,0,weatherlink.com 1.10,2013-04-11 00:22:00,
2013-04-10 19:37:00,37.0,36.0,29.93,NNE,19,4.0,10.0,97,0.00,,,0.42,0,weatherlink.com 1.10,2013-04-11 00:37:00,
2013-04-10 19:53:00,37.0,36.0,29.91,ENE,64,4.0,10.0,97,0.00,,,0.42,0,weatherlink.com 1.10,2013-04-11 00:53:00,
2013-04-10 20:07:00,37.0,36.0,29.89,NE,42,10.0,12.0,97,0.00,,,0.42,0,weatherlink.com 1.10,2013-04-11 01:07:00,
2013-04-10 20:22:00,37.1,36.0,29.89,NNW,339,5.0,13.0,97,0.00,,,0.42,0,weatherlink.com 1.10,2013-04-11 01:22:00,
2013-04-10 20:37:00,37.3,37.0,29.96,NE,49,4.0,12.0,97,0.00,,,0.42,0,weatherlink.com 1.10,2013-04-11 01:37:00,
2013-04-10 20:52:00,37.5,37.0,29.98,NE,49,4.0,8.0,97,0.00,,,0.42,0,weatherlink.com 1.10,2013-04-11 01:52:00,
2013-04-10 21:07:00,37.6,37.0,29.99,North,360,3.0,10.0,97,0.00,,,0.42,0,weatherlink.com 1.10,2013-04-11 02:07:00,
2013-04-10 21:22:00,37.7,37.0,29.97,NNE,29,2.0,10.0,97,0.00,,,0.42,0,weatherlink.com 1.10,2013-04-11 02:22:00,
2013-04-10 21:37:00,37.7,37.0,29.95,North,355,5.0,11.0,97,0.00,,,0.42,0,weatherlink.com 1.10,2013-04-11 02:37:00,
2013-04-10 21:52:00,37.9,37.0,29.94,NE,52,4.0,14.0,97,0.00,,,0.42,0,weatherlink.com 1.10,2013-04-11 02:52:00,
2013-04-10 22:37:00,38.3,37.0,29.95,NE,36,5.0,9.0,96,0.02,,,0.44,0,weatherlink.com 1.10,2013-04-11 03:37:00,
2013-04-10 22:52:00,38.1,37.0,29.95,NNE,30,4.0,8.0,96,0.02,,,0.44,0,weatherlink.com 1.10,2013-04-11 03:52:00,
2013-04-10 23:07:00,37.9,37.0,29.95,NW,319,3.0,8.0,96,0.01,,,0.44,0,weatherlink.com 1.10,2013-04-11 04:07:00,
2013-04-10 23:22:00,37.9,37.0,29.94,North,9,3.0,12.0,96,0.02,,,0.45,0,weatherlink.com 1.10,2013-04-11 04:22:00,
2013-04-10 23:37:00,37.8,37.0,29.93,NE,34,3.0,10.0,97,0.02,,,0.46,0,weatherlink.com 1.10,2013-04-11 04:37:00,
2013-04-10 23:52:00,37.8,37.0,29.94,NE,56,3.0,7.0,97,0.02,,,0.46,0,weatherlink.com 1.10,2013-04-11 04:52:00,